• în Republica Moldova
  • Lista ţărilor
  • Pe 7 zile
  • Temperatura apei
  • Hartă satelitară
  • Meteo pe hartă
  • Widget-uri
  • user-avatar
    Intrare

    Meteo pe oră la Linkovo

    Astăzi, 24 Septembrie, Luni

    Timp Temperatura Precipitaţii Vânt Presiune Umiditate
    00:00 +7°C° 0 mm 3 m/s 732 mmHg 93%
    01:00 +6°C° 0 mm 2 m/s 732 mmHg 94%
    02:00 +5°C° 0 mm 2 m/s 732 mmHg 97%
    03:00 +5°C° 0 mm 2 m/s 732 mmHg 97%
    04:00 +5°C° 0 mm 2 m/s 732 mmHg 97%
    05:00 +5°C° 0 mm 2 m/s 731 mmHg 97%
    06:00 +6°C° 0 mm 2 m/s 731 mmHg 95%
    07:00 +7°C° 0 mm 2 m/s 731 mmHg 92%
    08:00 +8°C° 0 mm 2 m/s 731 mmHg 89%
    09:00 +8°C° 0.9 mm 3 m/s 730 mmHg 90%
    10:00 +8°C° 0.9 mm 3 m/s 730 mmHg 91%
    11:00 +8°C° 0.9 mm 3 m/s 729 mmHg 92%
    12:00 +7°C° 1.5 mm 4 m/s 729 mmHg 92%
    13:00 +7°C° 1.5 mm 4 m/s 728 mmHg 92%
    14:00 +6°C° 1.5 mm 4 m/s 727 mmHg 92%
    15:00 +6°C° 2.2 mm 4 m/s 726 mmHg 93%
    16:00 +6°C° 2.2 mm 4 m/s 725 mmHg 94%
    17:00 +5°C° 2.2 mm 5 m/s 724 mmHg 94%
    18:00 +5°C° 3.3 mm 5 m/s 723 mmHg 95%
    19:00 +6°C° 3.3 mm 5 m/s 722 mmHg 95%
    20:00 +6°C° 3.3 mm 5 m/s 722 mmHg 95%
    21:00 +5°C° 2.3 mm 5 m/s 722 mmHg 95%
    22:00 +5°C° 2.3 mm 5 m/s 721 mmHg 95%
    23:00 +5°C° 2.3 mm 5 m/s 721 mmHg 94%

    Mâine, 25 Septembrie, Marţi

    Timp Temperatura Precipitaţii Vânt Presiune Umiditate
    00:00 +4°C° 1.4 mm 6 m/s 722 mmHg 94%
    01:00 +4°C° 1.4 mm 6 m/s 722 mmHg 93%
    02:00 +4°C° 1.4 mm 7 m/s 723 mmHg 92%
    03:00 +4°C° 0.6 mm 7 m/s 724 mmHg 91%
    04:00 +4°C° 0.6 mm 7 m/s 724 mmHg 91%
    05:00 +4°C° 0.6 mm 7 m/s 725 mmHg 90%
    06:00 +4°C° 0.3 mm 7 m/s 726 mmHg 89%
    07:00 +4°C° 0.3 mm 7 m/s 727 mmHg 88%
    08:00 +4°C° 0.3 mm 7 m/s 728 mmHg 87%
    09:00 +4°C° 0.1 mm 7 m/s 729 mmHg 86%
    10:00 +5°C° 0.1 mm 7 m/s 729 mmHg 84%
    11:00 +5°C° 0.1 mm 7 m/s 730 mmHg 83%
    12:00 +5°C° 0.1 mm 6 m/s 731 mmHg 81%
    13:00 +5°C° 0.1 mm 6 m/s 732 mmHg 79%
    14:00 +5°C° 0.1 mm 6 m/s 733 mmHg 77%
    15:00 +5°C° 0 mm 6 m/s 733 mmHg 76%
    16:00 +6°C° 0 mm 5 m/s 734 mmHg 75%
    17:00 +6°C° 0 mm 5 m/s 735 mmHg 74%
    18:00 +5°C° 0 mm 5 m/s 736 mmHg 75%
    19:00 +5°C° 0 mm 5 m/s 737 mmHg 76%
    20:00 +3°C° 0 mm 5 m/s 737 mmHg 77%
    21:00 +3°C° 0 mm 5 m/s 738 mmHg 77%
    22:00 +3°C° 0 mm 4 m/s 739 mmHg 77%
    23:00 +3°C° 0 mm 4 m/s 739 mmHg 77%

    Poimâine, 26 Septembrie, Miercuri

    Timp Temperatura Precipitaţii Vânt Presiune Umiditate
    00:00 +1°C° 0 mm 4 m/s 740 mmHg 76%
    01:00 +1°C° 0 mm 4 m/s 740 mmHg 75%
    02:00 0°C° 0 mm 4 m/s 741 mmHg 74%
    03:00 +1°C° 0 mm 3 m/s 741 mmHg 76%
    04:00 0°C° 0 mm 3 m/s 742 mmHg 78%
    05:00 0°C° 0 mm 3 m/s 742 mmHg 80%
    06:00 +1°C° 0 mm 3 m/s 743 mmHg 78%
    07:00 +2°C° 0 mm 3 m/s 743 mmHg 76%
    08:00 +3°C° 0 mm 3 m/s 743 mmHg 74%
    09:00 +4°C° 0 mm 3 m/s 743 mmHg 71%
    10:00 +6°C° 0 mm 4 m/s 743 mmHg 67%
    11:00 +8°C° 0 mm 4 m/s 743 mmHg 64%
    12:00 +10°C° 0 mm 4 m/s 742 mmHg 61%
    13:00 +9°C° 0 mm 5 m/s 742 mmHg 58%
    14:00 +10°C° 0 mm 5 m/s 741 mmHg 55%
    15:00 +9°C° 0 mm 5 m/s 740 mmHg 58%
    16:00 +8°C° 0 mm 5 m/s 739 mmHg 62%
    17:00 +7°C° 0 mm 5 m/s 739 mmHg 65%
    18:00 +7°C° 0.4 mm 6 m/s 738 mmHg 72%
    19:00 +5°C° 0.4 mm 6 m/s 737 mmHg 79%
    20:00 +5°C° 0.4 mm 7 m/s 736 mmHg 86%
    21:00 +5°C° 1.4 mm 7 m/s 735 mmHg 87%
    22:00 +4°C° 1.4 mm 8 m/s 734 mmHg 89%
    23:00 +4°C° 1.4 mm 8 m/s 732 mmHg 90%

    27 Septembrie, Joi

    Timp Temperatura Precipitaţii Vânt Presiune Umiditate
    00:00 +5°C° 1 mm 7 m/s 732 mmHg 90%
    01:00 +5°C° 1 mm 7 m/s 731 mmHg 91%
    02:00 +5°C° 1 mm 7 m/s 731 mmHg 91%
    03:00 +5°C° 0.5 mm 6 m/s 730 mmHg 92%
    04:00 +7°C° 0.5 mm 6 m/s 730 mmHg 92%
    05:00 +7°C° 0.5 mm 5 m/s 730 mmHg 92%
    06:00 +7°C° 0.1 mm 5 m/s 731 mmHg 91%
    07:00 +7°C° 0.1 mm 5 m/s 731 mmHg 89%
    08:00 +7°C° 0.1 mm 5 m/s 731 mmHg 88%
    09:00 +7°C° 0 mm 5 m/s 731 mmHg 82%
    10:00 +8°C° 0 mm 5 m/s 731 mmHg 76%
    11:00 +9°C° 0 mm 5 m/s 731 mmHg 70%
    12:00 +9°C° 0 mm 5 m/s 731 mmHg 67%
    13:00 +9°C° 0 mm 5 m/s 731 mmHg 64%
    14:00 +10°C° 0 mm 5 m/s 731 mmHg 62%
    15:00 +9°C° 0 mm 5 m/s 731 mmHg 66%
    16:00 +8°C° 0 mm 4 m/s 731 mmHg 71%
    17:00 +8°C° 0 mm 3 m/s 732 mmHg 75%
    18:00 +8°C° 0 mm 3 m/s 732 mmHg 78%
    19:00 +7°C° 0 mm 3 m/s 732 mmHg 82%
    20:00 +5°C° 0 mm 3 m/s 732 mmHg 85%
    21:00 +5°C° 0 mm 3 m/s 732 mmHg 86%
    22:00 +5°C° 0 mm 3 m/s 732 mmHg 87%
    23:00 +7°C° 0 mm 3 m/s 732 mmHg 88%

    28 Septembrie, Vineri

    Timp Temperatura Precipitaţii Vânt Presiune Umiditate
    00:00 +7°C° 0.1 mm 3 m/s 732 mmHg 88%
    01:00 +7°C° 0.1 mm 3 m/s 731 mmHg 89%
    02:00 +7°C° 0.1 mm 3 m/s 731 mmHg 90%
    03:00 +7°C° 0.4 mm 3 m/s 730 mmHg 91%
    04:00 +6°C° 0.4 mm 4 m/s 730 mmHg 92%
    05:00 +6°C° 0.4 mm 4 m/s 729 mmHg 93%
    06:00 +7°C° 1.5 mm 3 m/s 729 mmHg 94%
    07:00 +7°C° 1.5 mm 3 m/s 728 mmHg 95%
    08:00 +7°C° 1.5 mm 2 m/s 728 mmHg 95%
    09:00 +8°C° 0.3 mm 3 m/s 729 mmHg 91%
    10:00 +8°C° 0.3 mm 3 m/s 729 mmHg 87%
    11:00 +7°C° 0.3 mm 4 m/s 730 mmHg 82%
    12:00 +8°C° 0 mm 4 m/s 731 mmHg 76%
    13:00 +8°C° 0 mm 4 m/s 731 mmHg 70%
    14:00 +10°C° 0 mm 4 m/s 732 mmHg 64%
    15:00 +9°C° 0 mm 3 m/s 732 mmHg 68%
    16:00 +8°C° 0 mm 3 m/s 733 mmHg 71%
    17:00 +7°C° 0 mm 2 m/s 733 mmHg 75%
    18:00 +6°C° 0 mm 2 m/s 734 mmHg 78%
    19:00 +6°C° 0 mm 1 m/s 734 mmHg 82%
    20:00 +5°C° 0 mm 1 m/s 735 mmHg 85%
    21:00 +4°C° 0 mm 1 m/s 735 mmHg 85%
    22:00 +4°C° 0 mm 1 m/s 735 mmHg 85%
    23:00 +3°C° 0 mm 1 m/s 735 mmHg 86%

    29 Septembrie, Sâmbătă

    Timp Temperatura Precipitaţii Vânt Presiune Umiditate
    00:00 +3°C° 0 mm 1 m/s 736 mmHg 84%
    01:00 +3°C° 0 mm 1 m/s 736 mmHg 82%
    02:00 +4°C° 0 mm 1 m/s 736 mmHg 80%
    03:00 +4°C° 0.5 mm 1 m/s 737 mmHg 79%
    04:00 +4°C° 0.5 mm 1 m/s 737 mmHg 79%
    05:00 +3°C° 0.5 mm 2 m/s 737 mmHg 79%
    06:00 +3°C° 0.7 mm 2 m/s 737 mmHg 80%
    07:00 +3°C° 0.7 mm 2 m/s 738 mmHg 80%
    08:00 +3°C° 0.7 mm 2 m/s 738 mmHg 81%
    09:00 +4°C° 0.1 mm 2 m/s 738 mmHg 78%
    10:00 +4°C° 0.1 mm 2 m/s 739 mmHg 76%
    11:00 +5°C° 0.1 mm 2 m/s 739 mmHg 73%
    12:00 +6°C° 0 mm 2 m/s 740 mmHg 70%
    13:00 +6°C° 0 mm 2 m/s 740 mmHg 66%
    14:00 +8°C° 0 mm 1 m/s 740 mmHg 63%
    15:00 +7°C° 0 mm 1 m/s 740 mmHg 69%
    16:00 +6°C° 0 mm 1 m/s 741 mmHg 75%
    17:00 +5°C° 0 mm 1 m/s 741 mmHg 81%
    18:00 +4°C° 0 mm 1 m/s 741 mmHg 84%
    19:00 +3°C° 0 mm 1 m/s 742 mmHg 88%
    20:00 +3°C° 0 mm 1 m/s 742 mmHg 92%
    21:00 +1°C° 0 mm 2 m/s 743 mmHg 92%
    22:00 +1°C° 0 mm 2 m/s 743 mmHg 92%
    23:00 +1°C° 0 mm 2 m/s 743 mmHg 92%
    Arată mai mult